Showing default

GONETS M 12 (M22), 40553

Orbit data source: Space-Track

GONETS M 12 (M22), 40553 is a payload satellite owned by Gonets (CIS) in LEO that was launched on Tue, 31 Mar 2015 UTC via an ROKOT launch vehicle from the Plesetsk Missile And Space Complex (PKMTR). Payloads include a variety of satellites, spacecraft, and rockets equipped with specific instruments for various scientific and technological missions. These include communications satellites like Starlink; space stations such as the ISS; scientific satellites like the Hubble; Earth observation satellites from companies like Planet Labs, Umbra, and HawkEye 360; GPS; miniature CubeSats for education and research; and military/defense satellites.

Loading next visibility...
GONETS M 12 (M22) details
Identifier
40553, 2015-020B
Orbit
LEO
Last TLE update8 hours ago
Origin
Flag of CISGonets (CIS)
ManufacturerResehetnev ISS
MissionOperational Civil Communications
Bus & MotorSTRELA-3M, Unknown motor
Mass225 kg wet, 225 kg dry
Launch date (UTC)
2015-03-31 (10 years ago)
Launch vehicle
ROKOT
Launch site
Plesetsk Missile And Space Complex (PKMTR)
Object type
Payload
Rocket body
Debris
Shape & HBRCyl + 1 Ant, 7 m
Radar Cross Section1.798 m², Large (>1 m²)

Expand to show TLE details & history

TLE from 8 hours ago
0 GONETS M 12 (M22)
1 40553U 15020B   24337.10822813  .00000058  00000-0  34405-3 0  9991
2 40553  82.4916  22.1564 0016007 132.2223 228.0218 12.42892622438947
Epoch: 2024-12-02T02:35Z
Definitive object data (Epoch: 2024-12-02T02:35:50.91Z)
Latitude-0.00001°
Longitude-88.24255°
Altitude1,505.505 km
Speed7.108 km/s
True Right ascension01h 28m 37s
True Declination0° 00' 00"
Sunlit
Object was in full shadow at TLE epoch
Visualization TLE readout
Latitude53.72378°
Longitude81.24537°
Altitude1,490.561 km
Speed7.129 km/s
Apparent Right ascension16h 56m 18s
Apparent Declination25° 10' 26"
Sunlit
Object is in daylight
Visualization observer readout
Local Sidereal Time08:46:33
Azimuth50.141° ENE
Elevation-5.703°
Doppler factor1
Orbital elements
Apogee altitude1,504.314 km
Perigee altitude1,479.119 km
Semi-major axis7,869.853 km
Eccentricity0.0016007
Inclination82.4916°
RAAN22.1564°
Arg. of periapsis132.2223°
True anomaly227.88562°
Mean anomaly228.0218°
Eccentric anomaly227.95369°
Mean motion3.1088 °/min
BSTAR0.00034405
Orbital period115.8 mins
Loading maneuver chart data...
Loading historical data...
Loading historical data...
Loading historical data...
Loading historical data...
Loading historical data...
Loading historical data...
Loading historical data...

GONETS M 12 (M22) Visibility forecast

Observer location: undefined°, undefined

Span
Click to sort rows by Start time (UTC) header in descending order
Start Az.
Max El. time (UTC)
Max El. Az.
Max El.
End time (UTC)
End Az.
7 mins2024-12-02 12:53:54.425Z33.199° NE2024-12-02 12:57:54.425Z61.695° ENE13.092°2024-12-02 13:00:54.425Z82.97° E
15 mins2024-12-02 14:48:54.425Z357.971° N2024-12-02 14:55:54.425Z72.69° E43.498°2024-12-02 15:03:54.425Z163.942° S
11 mins2024-12-02 16:46:54.425Z320.301° NNW2024-12-02 16:51:54.425Z280.155° WNW21.299°2024-12-02 16:57:54.425Z234.022° WSW
7 mins2024-12-03 01:56:54.425Z101.022° ESE2024-12-03 01:59:54.425Z79.188° E14.704°2024-12-03 02:03:54.425Z49.896° ENE
15 mins2024-12-03 03:48:54.425Z181.288° SSW2024-12-03 03:55:54.425Z63.826° ENE44.774°2024-12-03 04:03:54.425Z9.299° NNE
10 mins2024-12-03 05:48:54.425Z259.102° W2024-12-03 05:53:54.425Z298.784° NW19.062°2024-12-03 05:58:54.425Z336.667° NNW
|